Beatrice, NE

8:01 AM CDT on September 29, 2016 (GMT -0500)
Beatrice Municipal

Weather History for KBIE - January, 2000

Change the Weather History Date:

Thursday, January 13, 2000

  Actual Average Record
Temperature  
Mean Temperature 26 °F -  
Max Temperature 39 °F 35 °F 58 °F (1980)
Min Temperature 14 °F 12 °F -11 °F (1964)
Degree Days  
Heating Degree Days 38    
Moisture  
Dew Point 14 °F    
Average Humidity 60    
Maximum Humidity 79    
Minimum Humidity 42    
Precipitation  
Precipitation 0.00 in - - ()
Sea Level Pressure  
Sea Level Pressure 30.59 in    
Wind  
Wind Speed 8 mph (NNW)    
Max Wind Speed 15 mph    
Max Gust Speed -    
Visibility 10 miles    
Events      
Averages and records for this station are not official NWS values.
T = Trace of Precipitation, MM = Missing Value Source: NWS Daily Summary

Daily Weather History Graph

Daily Weather History Graph

Search for Another Location

Airport or City:

Trip Planner

Search our weather history database for the weather conditions in past years. The results will help you decide how hot, cold, wet, or windy it might be!

Date:

Astronomy

Jan. 13, 2000 Rise Set
Actual Time 7:48 AM CST 5:22 PM CST
Civil Twilight 7:18 AM CST 5:52 PM CST
Nautical Twilight 6:45 AM CST 6:26 PM CST
Astronomical Twilight 6:12 AM CST 6:59 PM CST
Moon 11:49 AM CST (1/13) No Moon Set
Length of Visible Light 10h 34m
Length of Day
9h 33m
Waxing Crescent, 41% of the Moon is Illuminated
Jan 13
Waxing Crescent
Jan 14
First Quarter
Jan 20
Full
Jan 28
Last Quarter
Feb 5
New

Hourly Weather History & Observations

Time (CST) Temp. Windchill Dew Point Humidity Pressure Visibility Wind Dir Wind Speed Gust Speed Precip Events Conditions
12:10 AM 23.0 °F 11.7 °F 10.4 °F 59% 30.32 in 10.0 mi WNW 11.5 mph - N/A   Clear
12:49 AM 21.2 °F 8.3 °F 10.4 °F 63% 30.34 in 10.0 mi WNW 13.8 mph - N/A   Clear
1:11 AM 21.2 °F 8.9 °F 10.4 °F 63% 30.35 in 10.0 mi WNW 12.7 mph - N/A   Clear
1:30 AM 21.2 °F 9.5 °F 10.4 °F 63% 30.37 in 10.0 mi WNW 11.5 mph - N/A   Clear
1:52 AM 21.2 °F 8.9 °F 10.4 °F 63% 30.39 in 10.0 mi NW 12.7 mph - N/A   Clear
2:10 AM 19.4 °F 6.0 °F 8.6 °F 63% 30.41 in 10.0 mi WNW 13.8 mph - N/A   Clear
2:29 AM 19.4 °F 5.5 °F 10.4 °F 68% 30.42 in 10.0 mi NW 15.0 mph - N/A   Clear
3:11 AM 19.4 °F 6.6 °F 8.6 °F 63% 30.44 in 10.0 mi NW 12.7 mph - N/A   Clear
3:32 AM 19.4 °F 6.6 °F 8.6 °F 63% 30.45 in 10.0 mi NW 12.7 mph - N/A   Clear
3:55 AM 17.6 °F 5.0 °F 8.6 °F 68% 30.45 in 10.0 mi NW 11.5 mph - N/A   Clear
4:29 AM 19.4 °F 7.2 °F 8.6 °F 63% 30.46 in 10.0 mi NW 11.5 mph - N/A   Scattered Clouds
4:49 AM 17.6 °F 8.2 °F 8.6 °F 68% 30.47 in 10.0 mi NW 6.9 mph - N/A   Scattered Clouds
5:09 AM 17.6 °F 10.7 °F 8.6 °F 68% 30.49 in 10.0 mi NW 4.6 mph - N/A   Clear
5:31 AM 17.6 °F 7.3 °F 8.6 °F 68% 30.50 in 10.0 mi NW 8.1 mph - N/A   Clear
5:53 AM 17.6 °F 7.3 °F 8.6 °F 68% 30.50 in 10.0 mi NW 8.1 mph - N/A   Clear
6:30 AM 15.8 °F 4.2 °F 8.6 °F 73% 30.51 in 10.0 mi NW 9.2 mph - N/A   Clear
6:49 AM 15.8 °F 6.1 °F 8.6 °F 73% 30.53 in 10.0 mi NW 6.9 mph - N/A   Clear
7:10 AM 14.0 °F 6.5 °F 6.8 °F 73% 30.54 in 10.0 mi NNW 4.6 mph - N/A   Clear
7:29 AM 15.8 °F - 8.6 °F 73% 30.56 in 10.0 mi Calm Calm - N/A   Clear
7:50 AM 15.8 °F 8.6 °F 10.4 °F 79% 30.57 in 10.0 mi North 4.6 mph - N/A   Clear
8:12 AM 14.0 °F 6.5 °F 6.8 °F 73% 30.59 in 10.0 mi NNW 4.6 mph - N/A   Clear
8:31 AM 15.8 °F - 10.4 °F 79% 30.59 in 10.0 mi Calm Calm - N/A   Clear
8:51 AM 17.6 °F 9.3 °F 12.2 °F 79% 30.60 in 10.0 mi North 5.8 mph - N/A   Clear
9:11 AM 19.4 °F 10.4 °F 12.2 °F 74% 30.62 in 10.0 mi North 6.9 mph - N/A   Clear
9:33 AM 21.2 °F 11.7 °F 14.0 °F 74% 30.62 in 10.0 mi North 8.1 mph - N/A   Clear
9:50 AM 23.0 °F 13.9 °F 15.8 °F 74% 30.64 in 10.0 mi North 8.1 mph - N/A   Clear
10:11 AM 24.8 °F 16.1 °F 14.0 °F 64% 30.65 in 10.0 mi North 8.1 mph - N/A   Clear
10:34 AM 26.6 °F 20.0 °F 15.8 °F 64% 30.67 in 10.0 mi North 5.8 mph - N/A   Clear
10:50 AM 26.6 °F 19.1 °F 15.8 °F 64% 30.67 in 10.0 mi North 6.9 mph - N/A   Clear
11:50 AM 30.2 °F 26.7 °F 15.8 °F 55% 30.66 in 10.0 mi NE 3.5 mph - N/A   Clear
12:11 PM 32.0 °F 28.7 °F 17.6 °F 55% 30.66 in 10.0 mi NE 3.5 mph - N/A   Clear
12:32 PM 33.8 °F - 17.6 °F 52% 30.66 in 10.0 mi Calm Calm - N/A   Clear
12:51 PM 33.8 °F 29.6 °F 17.6 °F 52% 30.66 in 10.0 mi NE 4.6 mph - N/A   Clear
1:14 PM 35.6 °F - 17.6 °F 48% 30.65 in 10.0 mi Calm Calm - N/A   Clear
1:31 PM 35.6 °F - 17.6 °F 48% 30.65 in 10.0 mi Calm Calm - N/A   Clear
1:50 PM 37.4 °F - 17.6 °F 45% 30.64 in 10.0 mi Calm Calm - N/A   Clear
2:12 PM 37.4 °F 34.9 °F 19.4 °F 48% 30.64 in 10.0 mi North 3.5 mph - N/A   Clear
2:36 PM 37.4 °F - 19.4 °F 48% 30.63 in 10.0 mi Calm Calm - N/A   Clear
2:50 PM 39.2 °F - 19.4 °F 45% 30.63 in 10.0 mi Calm Calm - N/A   Clear
3:11 PM 39.2 °F 37.0 °F 19.4 °F 45% 30.63 in 10.0 mi SSE 3.5 mph - N/A   Clear
3:30 PM 39.2 °F - 17.6 °F 42% 30.64 in 10.0 mi Calm Calm - N/A   Clear
3:51 PM 39.2 °F - 17.6 °F 42% 30.64 in 10.0 mi Calm Calm - N/A   Clear
4:10 PM 39.2 °F - 19.4 °F 45% 30.64 in 10.0 mi Calm Calm - N/A   Clear
4:51 PM 37.4 °F 34.9 °F 17.6 °F 45% 30.65 in 10.0 mi ESE 3.5 mph - N/A   Clear
5:10 PM 37.4 °F 33.8 °F 17.6 °F 45% 30.65 in 10.0 mi SE 4.6 mph - N/A   Clear
5:30 PM 35.6 °F 30.7 °F 17.6 °F 48% 30.66 in 10.0 mi SSE 5.8 mph - N/A   Clear
5:53 PM 33.8 °F 28.6 °F 15.8 °F 48% 30.66 in 10.0 mi SSE 5.8 mph - N/A   Clear
6:10 PM 33.8 °F 28.6 °F 17.6 °F 52% 30.67 in 10.0 mi SSE 5.8 mph - N/A   Clear
6:30 PM 33.8 °F 28.6 °F 15.8 °F 48% 30.67 in 10.0 mi SSE 5.8 mph - N/A   Clear
6:53 PM 33.8 °F 27.7 °F 17.6 °F 52% 30.68 in 10.0 mi SSE 6.9 mph - N/A   Clear
7:10 PM 30.2 °F 23.4 °F 15.8 °F 55% 30.68 in 10.0 mi SSE 6.9 mph - N/A   Clear
7:54 PM 28.4 °F 20.4 °F 15.8 °F 59% 30.68 in 10.0 mi ESE 8.1 mph - N/A   Clear
8:50 PM 28.4 °F 20.4 °F 15.8 °F 59% 30.68 in 10.0 mi SE 8.1 mph - N/A   Clear
9:11 PM 28.4 °F 20.4 °F 15.8 °F 59% 30.68 in 10.0 mi SE 8.1 mph - N/A   Clear
9:30 PM 26.6 °F 18.2 °F 12.2 °F 55% 30.67 in 10.0 mi SE 8.1 mph - N/A   Clear
9:51 PM 26.6 °F 19.1 °F 15.8 °F 64% 30.67 in 10.0 mi SE 6.9 mph - N/A   Clear
10:14 PM 26.6 °F 20.0 °F 14.0 °F 59% 30.65 in 10.0 mi SE 5.8 mph - N/A   Clear
10:30 PM 26.6 °F 19.1 °F 15.8 °F 64% 30.66 in 10.0 mi SE 6.9 mph - N/A   Clear
10:51 PM 26.6 °F 18.2 °F 14.0 °F 59% 30.66 in 10.0 mi SSE 8.1 mph - N/A   Clear
11:14 PM 24.8 °F 17.9 °F 14.0 °F 64% 30.67 in 10.0 mi SSE 5.8 mph - N/A   Clear
11:30 PM 24.8 °F 16.9 °F 14.0 °F 64% 30.67 in 10.0 mi South 6.9 mph - N/A   Clear
11:50 PM 24.8 °F 16.9 °F 15.8 °F 69% 30.67 in 10.0 mi South 6.9 mph - N/A   Clear